Overview Statistics Trail Chart Weather Telemetry Raw packets
 

This is the latest recevied weather packets stored in our database for station/object K7CTM. If no packets are shown the sender has not sent any weather packets the latest 10 day(s).

<< 20 21 22 23 24 25 26 >>
Time Temp. Humidity Pressure Rain* Wind** Luminosity Snow
1788476985 26.67° C 22% 1019.9 hPa 0 mm - 332 W/m² -
1788476681 26.67° C 22% 1019.7 hPa 0 mm - 188 W/m² -
1788476378 27.78° C 22% 1019.9 hPa 0 mm - 246 W/m² -
1788476073 27.78° C 22% 1019.6 hPa 0 mm - 363 W/m² -
1788475769 27.22° C 22% 1019.7 hPa 0 mm - 382 W/m² -
1788475465 27.22° C 22% 1019.7 hPa 0 mm - 409 W/m² -
1788475161 27.78° C 22% 1019.5 hPa 0 mm - 422 W/m² -
1788474860 27.22° C 22% 1019.6 hPa 0 mm - 433 W/m² -
1788474559 27.78° C 22% 1019.6 hPa 0 mm - 471 W/m² -
1788474254 27.78° C 22% 1019.5 hPa 0 mm - 517 W/m² -
1788473948 27.78° C 22% 1019.8 hPa 0 mm - 533 W/m² -
1788473648 27.78° C 22% 1019.9 hPa 0 mm - 561 W/m² -
1788473346 28.33° C 22% 1019.9 hPa 0 mm - 596 W/m² -
1788473040 27.78° C 23% 1019.8 hPa 0 mm - 520 W/m² -
1788472738 26.67° C 23% 1019.8 hPa 0 mm - 329 W/m² -
1788472435 27.22° C 23% 1019.8 hPa 0 mm - 329 W/m² -
1788472133 27.22° C 23% 1019.9 hPa 0 mm - 185 W/m² -
1788471829 27.22° C 24% 1019.9 hPa 0 mm - 704 W/m² -
1788471529 26.67° C 24% 1019.9 hPa 0 mm - 397 W/m² -
1788471229 26.67° C 24% 1019.9 hPa 0 mm - 720 W/m² -
1788470925 27.22° C 24% 1020 hPa 0 mm - 201 W/m² -
1788470621 27.78° C 23% 1019.9 hPa 0 mm - 743 W/m² -
1788470320 26.11° C 24% 1020 hPa 0 mm - 734 W/m² -
1788470017 25.56° C 26% 1020 hPa 0 mm - 262 W/m² -
1788469713 25.56° C 25% 1020 hPa 0 mm - 175 W/m² -

* Rain latest hour (hover to see other rain measurements)
** Current wind speed in m/s (hover to see current wind gust speed)